contact: severine.martini@mio.osupytheas.fr, dominique.lefevre@mio.osupytheas.fr
Project:EMSO Ligure-ouest http://www.emso-fr.org/EMSO-France
Sensor Optode, line 4330 Serial 272 
DOI : "https://doi.org/10.17882/97948" 
Title:EMSO Ligure Ouest : Data BathyDock capteur Optode - deploiement "2023-04-28"
Datetime,Profondeur,Latitude,Longitude,optode_type,serial,O2_concentration,O2_saturation,Temperature,Calibrated_Phase,Temp_Compensated_Phase,phase_blue_light,phase_red_light,Amplitude_blue_light,Amplitude_red_light,thermistor_bridge
time,m,degree_north,degree_east,1,1,umol.l-1,%,degree_C,degree,degree,degree,degree,mV,mV,mV
2024-02-01T00:00:07,2420,42.8014,5.9826,4330,272,186.072,56.992,13.313,36.064,36.643,41.232,4.589,296.1,546.5,291.1
2024-02-01T00:03:07,2420,42.8014,5.9826,4330,272,186.221,57.042,13.316,36.052,36.632,41.222,4.590,296.2,546.5,291.0
2024-02-01T00:06:07,2420,42.8014,5.9826,4330,272,186.219,57.039,13.314,36.053,36.633,41.223,4.589,296.2,546.5,291.1
2024-02-01T00:09:07,2420,42.8014,5.9826,4330,272,186.257,57.049,13.313,36.052,36.632,41.229,4.597,296.1,546.5,291.1
2024-02-01T00:12:08,2420,42.8014,5.9826,4330,272,186.273,57.053,13.312,36.051,36.631,41.224,4.593,296.2,546.5,291.2
2024-02-01T00:15:08,2420,42.8014,5.9826,4330,272,186.132,57.014,13.315,36.059,36.639,41.233,4.595,296.2,546.5,291.0
2024-02-01T00:18:08,2420,42.8014,5.9826,4330,272,186.274,57.052,13.312,36.051,36.631,41.228,4.597,296.3,546.5,291.2
2024-02-01T00:21:08,2420,42.8014,5.9826,4330,272,186.068,56.992,13.313,36.064,36.644,41.235,4.591,296.1,546.4,291.1
2024-02-01T00:24:07,2420,42.8014,5.9826,4330,272,186.372,57.086,13.314,36.044,36.624,41.219,4.595,296.2,546.4,291.1
2024-02-01T00:27:07,2420,42.8014,5.9826,4330,272,186.182,57.025,13.312,36.057,36.637,41.227,4.590,296.2,546.5,291.1
2024-02-01T00:30:07,2420,42.8014,5.9826,4330,272,186.124,57.014,13.317,36.058,36.638,41.231,4.593,296.2,546.5,291.0
2024-02-01T00:33:07,2420,42.8014,5.9826,4330,272,186.074,56.994,13.314,36.063,36.643,41.233,4.590,296.1,546.5,291.1
2024-02-01T00:36:07,2420,42.8014,5.9826,4330,272,186.372,57.093,13.320,36.041,36.621,41.212,4.591,296.2,546.5,290.9
2024-02-01T00:39:08,2420,42.8014,5.9826,4330,272,186.255,57.046,13.311,36.052,36.632,41.227,4.594,296.2,546.5,291.2
2024-02-01T00:42:08,2420,42.8014,5.9826,4330,272,186.240,57.050,13.318,36.050,36.630,41.221,4.590,296.2,546.5,291.0
2024-02-01T00:45:08,2420,42.8014,5.9826,4330,272,186.251,57.042,13.309,36.054,36.634,41.224,4.591,296.1,546.5,291.3
2024-02-01T00:48:08,2420,42.8014,5.9826,4330,272,186.097,56.992,13.307,36.065,36.645,41.232,4.588,296.2,546.5,291.3
2024-02-01T00:51:07,2420,42.8014,5.9826,4330,272,186.139,57.008,13.309,36.061,36.641,41.230,4.589,296.1,546.6,291.3
2024-02-01T00:54:07,2420,42.8014,5.9826,4330,272,186.168,57.020,13.311,36.059,36.638,41.232,4.594,296.2,546.6,291.2
2024-02-01T00:57:07,2420,42.8014,5.9826,4330,272,186.553,57.142,13.314,36.032,36.612,41.212,4.600,296.1,546.5,291.1
2024-02-01T01:00:08,2420,42.8014,5.9826,4330,272,186.143,57.019,13.316,36.057,36.637,41.231,4.594,296.1,546.5,291.0
2024-02-01T01:03:07,2420,42.8014,5.9826,4330,272,186.200,57.037,13.317,36.054,36.633,41.220,4.587,296.2,546.6,291.0
2024-02-01T01:06:07,2420,42.8014,5.9826,4330,272,186.247,57.041,13.309,36.054,36.634,41.223,4.588,296.1,546.5,291.3
2024-02-01T01:09:07,2420,42.8014,5.9826,4330,272,186.389,57.092,13.315,36.042,36.622,41.217,4.596,296.1,546.6,291.1
2024-02-01T01:12:07,2420,42.8014,5.9826,4330,272,186.111,57.012,13.319,36.059,36.638,41.227,4.589,296.1,546.5,290.9
2024-02-01T01:15:07,2420,42.8014,5.9826,4330,272,186.277,57.054,13.312,36.050,36.630,41.222,4.591,296.1,546.5,291.2
2024-02-01T01:18:07,2420,42.8014,5.9826,4330,272,185.989,56.976,13.320,36.066,36.646,41.234,4.588,296.2,546.5,290.9
2024-02-01T01:21:07,2420,42.8014,5.9826,4330,272,186.087,57.015,13.327,36.056,36.636,41.231,4.595,296.2,546.5,290.7
2024-02-01T01:24:07,2420,42.8014,5.9826,4330,272,186.093,57.004,13.317,36.060,36.640,41.233,4.594,296.3,546.5,291.0
2024-02-01T01:27:07,2420,42.8014,5.9826,4330,272,186.240,57.055,13.322,36.048,36.628,41.219,4.590,296.2,546.5,290.8
2024-02-01T01:30:08,2420,42.8014,5.9826,4330,272,186.047,56.989,13.316,36.064,36.644,41.230,4.587,296.2,546.5,291.0
2024-02-01T01:33:07,2420,42.8014,5.9826,4330,272,186.349,57.085,13.319,36.043,36.623,41.217,4.594,296.1,546.5,290.9
2024-02-01T01:36:08,2420,42.8014,5.9826,4330,272,186.035,56.989,13.319,36.064,36.643,41.233,4.590,296.1,546.5,290.9
2024-02-01T01:39:08,2420,42.8014,5.9826,4330,272,186.184,57.032,13.317,36.054,36.634,41.225,4.590,296.1,546.5,291.0
2024-02-01T01:42:08,2420,42.8014,5.9826,4330,272,186.002,56.977,13.317,36.066,36.646,41.236,4.590,296.2,546.4,291.0
2024-02-01T01:45:08,2420,42.8014,5.9826,4330,272,186.132,57.022,13.321,36.056,36.636,41.226,4.590,296.1,546.5,290.9
2024-02-01T01:48:08,2420,42.8014,5.9826,4330,272,185.938,56.965,13.324,36.067,36.647,41.235,4.588,296.2,546.5,290.8
2024-02-01T01:51:07,2420,42.8014,5.9826,4330,272,186.038,56.985,13.315,36.065,36.645,41.236,4.591,296.2,546.5,291.1
2024-02-01T01:54:08,2420,42.8014,5.9826,4330,272,186.039,56.987,13.316,36.064,36.644,41.235,4.591,296.1,546.5,291.0
2024-02-01T01:57:08,2420,42.8014,5.9826,4330,272,186.396,57.104,13.323,36.038,36.618,41.212,4.594,296.2,546.5,290.8
2024-02-01T02:00:08,2420,42.8014,5.9826,4330,272,186.021,56.984,13.319,36.064,36.644,41.228,4.584,296.1,546.5,290.9
2024-02-01T02:03:07,2420,42.8014,5.9826,4330,272,186.168,57.034,13.323,36.053,36.633,41.225,4.592,296.2,546.6,290.8
2024-02-01T02:06:07,2420,42.8014,5.9826,4330,272,186.108,57.015,13.322,36.057,36.637,41.225,4.588,296.1,546.5,290.8
2024-02-01T02:09:07,2420,42.8014,5.9826,4330,272,186.400,57.102,13.320,36.039,36.619,41.212,4.594,296.2,546.5,290.9
2024-02-01T02:12:07,2420,42.8014,5.9826,4330,272,185.972,56.979,13.326,36.063,36.643,41.228,4.585,296.2,546.4,290.7
2024-02-01T02:15:07,2420,42.8014,5.9826,4330,272,186.216,57.047,13.321,36.050,36.630,41.222,4.592,296.2,546.5,290.9
2024-02-01T02:18:07,2420,42.8014,5.9826,4330,272,186.082,57.009,13.323,36.058,36.638,41.229,4.591,296.2,546.4,290.8
2024-02-01T02:21:08,2420,42.8014,5.9826,4330,272,186.247,57.057,13.322,36.048,36.628,41.220,4.591,296.2,546.5,290.8
2024-02-01T02:24:08,2420,42.8014,5.9826,4330,272,186.157,57.030,13.322,36.054,36.634,41.227,4.594,296.2,546.4,290.8
2024-02-01T02:27:08,2420,42.8014,5.9826,4330,272,185.896,56.959,13.329,36.068,36.648,41.234,4.586,296.2,546.4,290.6
2024-02-01T02:30:07,2420,42.8014,5.9826,4330,272,185.949,56.971,13.326,36.066,36.646,41.234,4.589,296.2,546.5,290.7
2024-02-01T02:33:07,2420,42.8014,5.9826,4330,272,185.939,56.958,13.318,36.070,36.649,41.241,4.592,296.2,546.5,291.0
2024-02-01T02:36:07,2420,42.8014,5.9826,4330,272,186.104,57.006,13.316,36.060,36.640,41.233,4.592,296.2,546.4,291.0
2024-02-01T02:39:07,2420,42.8014,5.9826,4330,272,186.042,56.990,13.318,36.063,36.643,41.232,4.590,296.2,546.5,291.0
2024-02-01T02:42:08,2420,42.8014,5.9826,4330,272,186.007,56.983,13.321,36.064,36.644,41.237,4.593,296.1,546.5,290.9
2024-02-01T02:45:08,2420,42.8014,5.9826,4330,272,185.812,56.933,13.329,36.073,36.653,41.242,4.589,296.3,546.4,290.6
2024-02-01T02:48:08,2420,42.8014,5.9826,4330,272,186.099,57.007,13.318,36.059,36.639,41.234,4.595,296.2,546.5,291.0
2024-02-01T02:51:07,2420,42.8014,5.9826,4330,272,186.042,56.993,13.320,36.062,36.642,41.234,4.592,296.3,546.5,290.9
2024-02-01T02:54:07,2420,42.8014,5.9826,4330,272,185.858,56.929,13.315,36.077,36.657,41.239,4.582,296.3,546.5,291.1
2024-02-01T02:57:08,2420,42.8014,5.9826,4330,272,186.006,56.989,13.326,36.061,36.641,41.232,4.590,296.1,546.5,290.7
2024-02-01T03:00:08,2420,42.8014,5.9826,4330,272,186.325,57.082,13.323,36.043,36.623,41.214,4.592,296.3,546.5,290.8
2024-02-01T03:03:07,2420,42.8014,5.9826,4330,272,186.129,57.017,13.318,36.057,36.637,41.223,4.586,296.2,546.5,291.0
2024-02-01T03:06:07,2420,42.8014,5.9826,4330,272,185.922,56.956,13.320,36.070,36.650,41.239,4.589,296.3,546.5,290.9
2024-02-01T03:09:08,2420,42.8014,5.9826,4330,272,185.916,56.955,13.321,36.070,36.649,41.243,4.593,296.3,546.4,290.9
2024-02-01T03:12:08,2420,42.8014,5.9826,4330,272,185.966,56.967,13.318,36.068,36.648,41.239,4.591,296.2,546.5,291.0
2024-02-01T03:15:07,2420,42.8014,5.9826,4330,272,186.052,56.992,13.317,36.063,36.643,41.231,4.588,296.3,546.5,291.0
2024-02-01T03:18:07,2420,42.8014,5.9826,4330,272,186.004,56.975,13.316,36.067,36.647,41.240,4.593,296.2,546.5,291.0
2024-02-01T03:21:07,2420,42.8014,5.9826,4330,272,186.350,57.083,13.317,36.044,36.624,41.219,4.596,296.3,546.6,291.0
2024-02-01T03:24:07,2420,42.8014,5.9826,4330,272,186.219,57.040,13.315,36.054,36.633,41.233,4.600,296.4,546.5,291.1
2024-02-01T03:27:08,2420,42.8014,5.9826,4330,272,185.755,56.909,13.324,36.079,36.659,41.236,4.577,296.3,546.5,290.8
2024-02-01T03:30:08,2420,42.8014,5.9826,4330,272,185.896,56.947,13.319,36.072,36.652,41.241,4.589,296.2,546.5,290.9
2024-02-01T03:33:07,2420,42.8014,5.9826,4330,272,185.954,56.960,13.316,36.070,36.650,41.238,4.589,296.3,546.5,291.0
2024-02-01T03:36:07,2420,42.8014,5.9826,4330,272,186.019,56.978,13.314,36.067,36.647,41.235,4.588,296.2,546.5,291.1
2024-02-01T03:39:07,2420,42.8014,5.9826,4330,272,186.036,56.992,13.322,36.062,36.641,41.233,4.591,296.3,546.5,290.8
2024-02-01T03:42:07,2420,42.8014,5.9826,4330,272,185.939,56.951,13.313,36.072,36.652,41.243,4.591,296.2,546.5,291.1
2024-02-01T03:45:08,2420,42.8014,5.9826,4330,272,186.127,57.018,13.320,36.056,36.636,41.229,4.592,296.3,546.4,290.9
2024-02-01T03:48:08,2420,42.8014,5.9826,4330,272,185.883,56.936,13.314,36.075,36.655,41.245,4.590,296.2,546.5,291.1
2024-02-01T03:51:08,2420,42.8014,5.9826,4330,272,185.923,56.946,13.312,36.073,36.653,41.244,4.591,296.3,546.4,291.2
2024-02-01T03:54:08,2420,42.8014,5.9826,4330,272,186.130,57.012,13.314,36.059,36.639,41.234,4.595,296.3,546.6,291.1
2024-02-01T03:57:07,2420,42.8014,5.9826,4330,272,186.043,56.996,13.323,36.061,36.641,41.236,4.596,296.2,546.5,290.8
2024-02-01T04:00:07,2420,42.8014,5.9826,4330,272,186.120,57.008,13.313,36.061,36.641,41.228,4.587,296.3,546.5,291.1
2024-02-01T04:03:08,2420,42.8014,5.9826,4330,272,186.136,57.024,13.322,36.056,36.635,41.229,4.594,296.2,546.5,290.8
2024-02-01T04:06:07,2420,42.8014,5.9826,4330,272,185.967,56.973,13.323,36.065,36.645,41.232,4.587,296.2,546.5,290.8
2024-02-01T04:09:07,2420,42.8014,5.9826,4330,272,186.081,56.996,13.314,36.063,36.642,41.230,4.588,296.3,546.5,291.1
2024-02-01T04:12:07,2420,42.8014,5.9826,4330,272,186.378,57.090,13.316,36.042,36.622,41.216,4.593,296.2,546.4,291.0
2024-02-01T04:15:08,2420,42.8014,5.9826,4330,272,186.312,57.072,13.318,36.046,36.626,41.219,4.594,296.2,546.5,291.0
2024-02-01T04:18:08,2420,42.8014,5.9826,4330,272,186.002,56.983,13.323,36.064,36.644,41.238,4.594,296.2,546.4,290.8
2024-02-01T04:21:08,2420,42.8014,5.9826,4330,272,185.891,56.945,13.319,36.073,36.653,41.241,4.588,296.2,546.5,290.9
2024-02-01T04:24:07,2420,42.8014,5.9826,4330,272,185.964,56.966,13.318,36.068,36.648,41.236,4.587,296.3,546.4,291.0
2024-02-01T04:27:07,2420,42.8014,5.9826,4330,272,186.202,57.030,13.312,36.056,36.636,41.224,4.588,296.3,546.4,291.2
2024-02-01T04:30:07,2420,42.8014,5.9826,4330,272,185.878,56.935,13.315,36.075,36.655,41.245,4.590,296.2,546.5,291.1
2024-02-01T04:33:07,2420,42.8014,5.9826,4330,272,186.153,57.032,13.325,36.053,36.633,41.228,4.595,296.2,546.4,290.7
2024-02-01T04:36:07,2420,42.8014,5.9826,4330,272,186.127,57.021,13.322,36.056,36.636,41.226,4.590,296.2,546.4,290.8
2024-02-01T04:39:07,2420,42.8014,5.9826,4330,272,186.140,57.023,13.321,36.056,36.636,41.229,4.593,296.2,546.4,290.9
2024-02-01T04:42:07,2420,42.8014,5.9826,4330,272,185.801,56.914,13.316,36.080,36.659,41.254,4.595,296.3,546.5,291.0
2024-02-01T04:45:08,2420,42.8014,5.9826,4330,272,186.127,57.015,13.317,36.058,36.638,41.235,4.597,296.2,546.4,291.0
2024-02-01T04:48:08,2420,42.8014,5.9826,4330,272,186.087,57.001,13.316,36.061,36.641,41.233,4.592,296.2,546.5,291.0
2024-02-01T04:51:08,2420,42.8014,5.9826,4330,272,186.129,57.010,13.313,36.060,36.640,41.235,4.595,296.2,546.5,291.1
2024-02-01T04:54:07,2420,42.8014,5.9826,4330,272,186.183,57.027,13.313,36.057,36.637,41.225,4.589,296.2,546.4,291.1
2024-02-01T04:57:07,2420,42.8014,5.9826,4330,272,186.144,57.017,13.315,36.058,36.638,41.229,4.591,296.2,546.5,291.1
2024-02-01T05:00:07,2420,42.8014,5.9826,4330,272,186.146,57.015,13.313,36.059,36.639,41.233,4.594,296.2,546.5,291.1
2024-02-01T05:03:07,2420,42.8014,5.9826,4330,272,185.831,56.921,13.315,36.079,36.658,41.248,4.590,296.2,546.4,291.1
2024-02-01T05:06:07,2420,42.8014,5.9826,4330,272,185.990,56.964,13.310,36.071,36.651,41.243,4.593,296.2,546.5,291.2
2024-02-01T05:09:07,2420,42.8014,5.9826,4330,272,186.226,57.042,13.315,36.053,36.633,41.228,4.595,296.2,546.5,291.1
2024-02-01T05:12:08,2420,42.8014,5.9826,4330,272,186.252,57.064,13.326,36.046,36.626,41.221,4.596,296.1,546.5,290.7
2024-02-01T05:15:08,2420,42.8014,5.9826,4330,272,185.891,56.940,13.316,36.074,36.654,41.247,4.593,296.2,546.4,291.0
2024-02-01T05:18:08,2420,42.8014,5.9826,4330,272,186.361,57.082,13.314,36.044,36.624,41.217,4.592,296.3,546.5,291.1
2024-02-01T05:21:07,2420,42.8014,5.9826,4330,272,186.237,57.050,13.318,36.050,36.630,41.221,4.592,296.2,546.5,290.9
2024-02-01T05:24:07,2420,42.8014,5.9826,4330,272,186.126,57.008,13.312,36.061,36.641,41.231,4.591,296.3,546.5,291.2
2024-02-01T05:27:07,2420,42.8014,5.9826,4330,272,186.081,57.009,13.324,36.057,36.637,41.233,4.596,296.2,546.5,290.8
2024-02-01T05:30:07,2420,42.8014,5.9826,4330,272,186.085,57.006,13.321,36.059,36.639,41.230,4.591,296.3,546.4,290.9
2024-02-01T05:33:07,2420,42.8014,5.9826,4330,272,185.832,56.934,13.325,36.074,36.653,41.246,4.592,296.3,546.4,290.7
2024-02-01T05:36:07,2420,42.8014,5.9826,4330,272,186.098,57.000,13.313,36.062,36.642,41.232,4.591,296.2,546.5,291.1
2024-02-01T05:39:08,2420,42.8014,5.9826,4330,272,186.059,56.997,13.319,36.061,36.641,41.232,4.591,296.2,546.4,290.9
2024-02-01T05:42:08,2420,42.8014,5.9826,4330,272,185.919,56.947,13.314,36.073,36.653,41.241,4.587,296.2,546.5,291.1
2024-02-01T05:45:07,2420,42.8014,5.9826,4330,272,186.086,57.011,13.324,36.058,36.637,41.229,4.591,296.3,546.5,290.8
2024-02-01T05:48:07,2420,42.8014,5.9826,4330,272,186.176,57.030,13.317,36.054,36.634,41.224,4.590,296.2,546.4,291.0
2024-02-01T05:51:08,2420,42.8014,5.9826,4330,272,186.012,56.977,13.315,36.067,36.647,41.240,4.594,296.2,546.5,291.1
2024-02-01T05:54:08,2420,42.8014,5.9826,4330,272,186.135,57.021,13.320,36.056,36.636,41.236,4.601,296.3,546.5,290.9
2024-02-01T05:57:07,2420,42.8014,5.9826,4330,272,185.547,56.847,13.325,36.093,36.672,41.250,4.577,296.2,546.5,290.7
2024-02-01T06:00:07,2420,42.8014,5.9826,4330,272,185.837,56.924,13.316,36.077,36.657,41.248,4.591,296.3,546.4,291.0
2024-02-01T06:03:08,2420,42.8014,5.9826,4330,272,185.918,56.956,13.321,36.070,36.649,41.235,4.586,296.3,546.5,290.9
2024-02-01T06:06:07,2420,42.8014,5.9826,4330,272,186.154,57.018,13.313,36.058,36.638,41.227,4.589,296.3,546.6,291.1
2024-02-01T06:09:07,2420,42.8014,5.9826,4330,272,186.104,57.003,13.313,36.061,36.641,41.236,4.595,296.1,546.5,291.1
2024-02-01T06:12:07,2420,42.8014,5.9826,4330,272,186.464,57.106,13.308,36.041,36.621,41.217,4.596,296.2,546.5,291.3
2024-02-01T06:15:07,2420,42.8014,5.9826,4330,272,186.388,57.081,13.307,36.046,36.626,41.222,4.595,296.2,546.6,291.3
2024-02-01T06:18:08,2420,42.8014,5.9826,4330,272,186.353,57.077,13.312,36.046,36.626,41.222,4.596,296.2,546.6,291.2
2024-02-01T06:21:08,2420,42.8014,5.9826,4330,272,185.900,56.936,13.310,36.077,36.657,41.242,4.586,296.2,546.5,291.2
2024-02-01T06:24:08,2420,42.8014,5.9826,4330,272,186.158,57.016,13.310,36.060,36.639,41.229,4.590,296.2,546.5,291.2
2024-02-01T06:27:07,2420,42.8014,5.9826,4330,272,186.227,57.031,13.306,36.057,36.637,41.227,4.590,296.1,546.6,291.4
2024-02-01T06:30:07,2420,42.8014,5.9826,4330,272,186.159,57.012,13.307,36.061,36.641,41.234,4.593,296.1,546.5,291.3
2024-02-01T06:33:08,2420,42.8014,5.9826,4330,272,186.316,57.064,13.310,36.049,36.629,41.227,4.597,296.1,546.5,291.2
2024-02-01T06:36:08,2420,42.8014,5.9826,4330,272,186.281,57.049,13.307,36.053,36.633,41.226,4.592,296.1,546.6,291.3
2024-02-01T06:39:08,2420,42.8014,5.9826,4330,272,186.394,57.082,13.306,36.046,36.626,41.219,4.593,296.1,546.6,291.4
2024-02-01T06:42:07,2420,42.8014,5.9826,4330,272,186.091,56.993,13.309,36.064,36.644,41.235,4.592,296.1,546.5,291.3
2024-02-01T06:45:07,2420,42.8014,5.9826,4330,272,186.371,57.077,13.307,36.047,36.627,41.217,4.590,296.1,546.5,291.3
2024-02-01T06:48:07,2420,42.8014,5.9826,4330,272,186.360,57.076,13.309,36.047,36.627,41.219,4.592,296.1,546.5,291.2
2024-02-01T06:51:07,2420,42.8014,5.9826,4330,272,186.143,57.012,13.311,36.060,36.639,41.232,4.593,296.1,546.6,291.2
2024-02-01T06:54:08,2420,42.8014,5.9826,4330,272,186.441,57.103,13.311,36.040,36.620,41.210,4.589,296.1,546.5,291.2
2024-02-01T06:57:08,2420,42.8014,5.9826,4330,272,186.378,57.077,13.306,36.048,36.628,41.218,4.590,296.1,546.6,291.4
2024-02-01T07:00:08,2420,42.8014,5.9826,4330,272,186.532,57.126,13.307,36.036,36.616,41.204,4.588,296.2,546.5,291.3
2024-02-01T07:03:07,2420,42.8014,5.9826,4330,272,186.215,57.029,13.307,36.057,36.637,41.231,4.594,296.2,546.5,291.3
2024-02-01T07:06:07,2420,42.8014,5.9826,4330,272,186.394,57.083,13.307,36.046,36.626,41.218,4.592,296.1,546.6,291.3
2024-02-01T07:09:07,2420,42.8014,5.9826,4330,272,186.083,56.992,13.310,36.065,36.644,41.232,4.588,296.1,546.6,291.2
2024-02-01T07:12:07,2420,42.8014,5.9826,4330,272,186.535,57.125,13.306,36.037,36.618,41.210,4.593,296.0,546.6,291.4
2024-02-01T07:15:08,2420,42.8014,5.9826,4330,272,186.243,57.038,13.307,36.055,36.635,41.227,4.592,296.1,546.5,291.3
2024-02-01T07:18:08,2420,42.8014,5.9826,4330,272,186.356,57.071,13.307,36.048,36.628,41.226,4.598,296.1,546.5,291.3
2024-02-01T07:21:07,2420,42.8014,5.9826,4330,272,186.272,57.046,13.307,36.054,36.633,41.227,4.593,296.1,546.6,291.3
2024-02-01T07:24:07,2420,42.8014,5.9826,4330,272,186.154,57.009,13.306,36.062,36.642,41.230,4.588,296.2,546.6,291.3
2024-02-01T07:27:07,2420,42.8014,5.9826,4330,272,186.107,56.994,13.306,36.064,36.644,41.236,4.592,296.2,546.6,291.4
2024-02-01T07:30:08,2420,42.8014,5.9826,4330,272,186.127,57.002,13.307,36.063,36.643,41.237,4.595,296.2,546.6,291.3
2024-02-01T07:33:07,2420,42.8014,5.9826,4330,272,186.484,57.109,13.306,36.041,36.621,41.212,4.591,296.1,546.5,291.4
2024-02-01T07:36:08,2420,42.8014,5.9826,4330,272,186.254,57.039,13.305,36.056,36.636,41.228,4.593,296.1,546.6,291.4
2024-02-01T07:39:08,2420,42.8014,5.9826,4330,272,186.306,57.056,13.306,36.051,36.631,41.224,4.593,296.0,546.5,291.3
2024-02-01T07:42:08,2420,42.8014,5.9826,4330,272,186.282,57.051,13.308,36.053,36.632,41.225,4.592,296.0,546.6,291.3
2024-02-01T07:45:07,2420,42.8014,5.9826,4330,272,186.634,57.155,13.306,36.031,36.611,41.201,4.590,296.1,546.6,291.4
2024-02-01T07:48:07,2420,42.8014,5.9826,4330,272,186.329,57.064,13.307,36.050,36.630,41.222,4.592,296.1,546.5,291.3
2024-02-01T07:51:07,2420,42.8014,5.9826,4330,272,186.336,57.064,13.306,36.050,36.630,41.229,4.599,296.1,546.5,291.4
2024-02-01T07:54:07,2420,42.8014,5.9826,4330,272,186.394,57.088,13.311,36.044,36.624,41.221,4.597,296.1,546.6,291.2
2024-02-01T07:57:07,2420,42.8014,5.9826,4330,272,186.268,57.044,13.307,36.054,36.633,41.221,4.588,296.1,546.6,291.3
2024-02-01T08:00:08,2420,42.8014,5.9826,4330,272,186.316,57.062,13.309,36.050,36.630,41.218,4.588,296.1,546.6,291.3
2024-02-01T08:03:07,2420,42.8014,5.9826,4330,272,186.468,57.107,13.308,36.040,36.620,41.210,4.591,296.1,546.5,291.3
2024-02-01T08:06:07,2420,42.8014,5.9826,4330,272,186.268,57.047,13.309,36.052,36.632,41.221,4.589,296.1,546.5,291.3
2024-02-01T08:09:08,2420,42.8014,5.9826,4330,272,186.352,57.075,13.310,36.046,36.626,41.222,4.596,296.0,546.5,291.2
2024-02-01T08:12:08,2420,42.8014,5.9826,4330,272,186.177,57.017,13.307,36.059,36.639,41.228,4.589,296.1,546.5,291.3
2024-02-01T08:15:08,2420,42.8014,5.9826,4330,272,186.281,57.053,13.310,36.052,36.632,41.226,4.594,296.1,546.5,291.2
2024-02-01T08:18:08,2420,42.8014,5.9826,4330,272,186.438,57.100,13.309,36.042,36.622,41.215,4.593,296.0,546.5,291.3
2024-02-01T08:21:07,2420,42.8014,5.9826,4330,272,186.432,57.099,13.311,36.041,36.621,41.215,4.593,296.1,546.6,291.2
2024-02-01T08:24:07,2420,42.8014,5.9826,4330,272,186.251,57.041,13.308,36.055,36.635,41.225,4.590,296.1,546.5,291.3
2024-02-01T08:27:07,2420,42.8014,5.9826,4330,272,186.526,57.127,13.309,36.036,36.616,41.211,4.595,295.9,546.4,291.3
2024-02-01T08:30:08,2420,42.8014,5.9826,4330,272,186.373,57.080,13.309,36.046,36.626,41.215,4.589,296.0,546.5,291.3
2024-02-01T08:33:07,2420,42.8014,5.9826,4330,272,186.354,57.073,13.308,36.048,36.628,41.222,4.595,296.1,546.5,291.3
2024-02-01T08:36:07,2420,42.8014,5.9826,4330,272,186.494,57.118,13.310,36.038,36.618,41.213,4.596,296.0,546.6,291.2
2024-02-01T08:39:07,2420,42.8014,5.9826,4330,272,186.213,57.031,13.309,36.056,36.636,41.223,4.586,296.0,546.5,291.2
2024-02-01T08:42:07,2420,42.8014,5.9826,4330,272,186.298,57.059,13.311,36.050,36.630,41.222,4.592,296.1,546.5,291.2
2024-02-01T08:45:07,2420,42.8014,5.9826,4330,272,186.317,57.066,13.312,36.048,36.628,41.223,4.595,296.1,546.5,291.2
2024-02-01T08:48:07,2420,42.8014,5.9826,4330,272,186.319,57.065,13.310,36.049,36.629,41.218,4.589,296.1,546.5,291.2
2024-02-01T08:51:08,2420,42.8014,5.9826,4330,272,186.478,57.110,13.308,36.039,36.619,41.212,4.593,296.0,546.5,291.3
2024-02-01T08:54:08,2420,42.8014,5.9826,4330,272,186.406,57.089,13.309,36.044,36.624,41.214,4.590,296.1,546.5,291.3
2024-02-01T08:57:07,2420,42.8014,5.9826,4330,272,186.320,57.065,13.310,36.049,36.628,41.216,4.588,296.1,546.5,291.2
2024-02-01T09:00:07,2420,42.8014,5.9826,4330,272,186.270,57.048,13.309,36.053,36.633,41.218,4.585,296.0,546.5,291.3
2024-02-01T09:03:07,2420,42.8014,5.9826,4330,272,186.459,57.104,13.307,36.041,36.621,41.216,4.595,296.1,546.6,291.3
2024-02-01T09:06:07,2420,42.8014,5.9826,4330,272,186.291,57.053,13.308,36.052,36.632,41.221,4.589,296.1,546.5,291.3
2024-02-01T09:09:07,2420,42.8014,5.9826,4330,272,186.545,57.134,13.310,36.034,36.614,41.208,4.594,296.0,546.4,291.2
2024-02-01T09:12:07,2420,42.8014,5.9826,4330,272,186.411,57.090,13.308,36.044,36.624,41.214,4.590,296.1,546.5,291.3
2024-02-01T09:15:07,2420,42.8014,5.9826,4330,272,186.392,57.086,13.310,36.044,36.624,41.213,4.589,296.1,546.5,291.2
2024-02-01T09:18:07,2420,42.8014,5.9826,4330,272,186.367,57.079,13.310,36.046,36.626,41.218,4.592,296.0,546.5,291.2
2024-02-01T09:21:08,2420,42.8014,5.9826,4330,272,186.557,57.137,13.310,36.033,36.613,41.205,4.591,296.1,546.5,291.2
2024-02-01T09:24:08,2420,42.8014,5.9826,4330,272,186.523,57.127,13.310,36.036,36.616,41.210,4.594,296.0,546.6,291.2
2024-02-01T09:27:08,2420,42.8014,5.9826,4330,272,186.210,57.033,13.312,36.055,36.635,41.223,4.588,296.0,546.5,291.2
2024-02-01T09:30:08,2420,42.8014,5.9826,4330,272,186.344,57.071,13.310,36.047,36.627,41.214,4.586,296.0,546.5,291.2
2024-02-01T09:33:07,2420,42.8014,5.9826,4330,272,186.367,57.077,13.308,36.046,36.626,41.217,4.590,296.0,546.5,291.3
2024-02-01T09:36:07,2420,42.8014,5.9826,4330,272,186.352,57.076,13.311,36.046,36.626,41.217,4.591,296.0,546.5,291.2
2024-02-01T09:39:07,2420,42.8014,5.9826,4330,272,186.224,57.035,13.310,36.055,36.635,41.228,4.592,296.1,546.4,291.2
2024-02-01T09:42:07,2420,42.8014,5.9826,4330,272,186.529,57.129,13.310,36.035,36.616,41.207,4.591,296.1,546.5,291.2
2024-02-01T09:45:07,2420,42.8014,5.9826,4330,272,186.314,57.068,13.314,36.047,36.627,41.220,4.593,295.9,546.5,291.1
2024-02-01T09:48:08,2420,42.8014,5.9826,4330,272,186.478,57.117,13.313,36.037,36.617,41.211,4.594,296.0,546.5,291.1
2024-02-01T09:51:08,2420,42.8014,5.9826,4330,272,186.540,57.134,13.312,36.034,36.614,41.206,4.592,296.0,546.5,291.2
2024-02-01T09:54:08,2420,42.8014,5.9826,4330,272,186.589,57.148,13.311,36.031,36.611,41.197,4.586,296.1,546.5,291.2
2024-02-01T09:57:08,2420,42.8014,5.9826,4330,272,186.401,57.090,13.310,36.043,36.623,41.216,4.593,296.0,546.5,291.2
2024-02-01T10:00:08,2420,42.8014,5.9826,4330,272,186.341,57.071,13.310,36.047,36.627,41.224,4.596,296.1,546.5,291.2